TimeCST,TemperatureF,Dew PointF,Humidity,Sea Level PressureIn,VisibilityMPH,Wind Direction,Wind SpeedMPH,Gust SpeedMPH,PrecipitationIn,Events,Conditions,WindDirDegrees,DateUTC
12:53 AM,24.1,16.0,71,30.09,5.0,North,3.5,-,0.00,Snow,Light Snow,360,2013-02-03 06:53:00
1:53 AM,23.0,17.1,78,30.06,5.0,ESE,3.5,-,0.00,,Haze,120,2013-02-03 07:53:00
2:47 AM,24.8,17.6,74,30.03,1.8,Calm,Calm,-,0.00,Snow,Light Snow,0,2013-02-03 08:47:00
2:48 AM,24.1,17.1,75,30.04,1.8,Calm,Calm,-,0.00,Snow,Light Snow,0,2013-02-03 08:48:00
2:58 AM,24.8,17.6,74,30.03,3.0,Calm,Calm,-,0.00,Snow,Light Snow,0,2013-02-03 08:58:00
3:15 AM,24.8,17.6,74,30.03,2.5,Calm,Calm,-,0.00,Snow,Light Snow,0,2013-02-03 09:15:00
3:22 AM,24.8,17.6,74,30.03,3.0,Calm,Calm,-,0.00,Snow,Light Snow,0,2013-02-03 09:22:00
3:33 AM,24.8,17.6,74,30.03,5.0,Calm,Calm,-,0.00,,Haze,0,2013-02-03 09:33:00
3:53 AM,24.1,18.0,77,30.04,3.0,Calm,Calm,-,0.00,Snow,Light Snow,0,2013-02-03 09:53:00
4:40 AM,24.8,19.4,80,30.01,2.5,Calm,Calm,-,0.00,,Overcast,0,2013-02-03 10:40:00
4:53 AM,24.1,19.9,84,30.03,2.5,Calm,Calm,-,0.00,Snow,Light Snow,0,2013-02-03 10:53:00
5:04 AM,24.8,21.2,86,30.01,1.8,Calm,Calm,-,0.00,Snow,Light Snow,0,2013-02-03 11:04:00
5:10 AM,24.8,21.2,86,30.01,1.8,Calm,Calm,-,0.00,Snow,Light Snow,0,2013-02-03 11:10:00
5:36 AM,24.8,21.2,86,30.01,2.0,Calm,Calm,-,0.00,,Overcast,0,2013-02-03 11:36:00
5:53 AM,24.1,21.0,88,30.03,1.5,NE,3.5,-,0.00,,Overcast,40,2013-02-03 11:53:00
6:36 AM,24.8,21.2,86,30.02,1.8,Calm,Calm,-,N/A,,Overcast,0,2013-02-03 12:36:00
6:51 AM,24.8,21.2,86,30.02,2.0,NE,3.5,-,N/A,,Overcast,50,2013-02-03 12:51:00
6:53 AM,24.1,21.0,88,30.04,2.0,Calm,Calm,-,N/A,,Overcast,0,2013-02-03 12:53:00
7:20 AM,24.8,21.2,86,30.03,1.2,Calm,Calm,-,N/A,,Overcast,0,2013-02-03 13:20:00
7:33 AM,24.8,21.2,86,30.03,0.8,NE,3.5,-,N/A,,Overcast,40,2013-02-03 13:33:00
7:53 AM,24.1,21.9,91,30.05,0.5,Calm,Calm,-,N/A,Fog,Light Freezing Fog,0,2013-02-03 13:53:00
8:16 AM,24.8,21.2,86,30.04,1.0,Calm,Calm,-,N/A,,Overcast,0,2013-02-03 14:16:00
8:45 AM,24.8,23.0,93,30.04,1.5,Calm,Calm,-,N/A,,Overcast,0,2013-02-03 14:45:00
8:53 AM,26.1,23.0,88,30.05,1.5,Calm,Calm,-,N/A,,Overcast,0,2013-02-03 14:53:00
9:30 AM,28.4,24.8,86,30.05,1.8,West,5.8,-,N/A,,Overcast,280,2013-02-03 15:30:00
9:32 AM,28.4,24.8,86,30.05,2.0,West,5.8,-,N/A,,Overcast,280,2013-02-03 15:32:00
9:50 AM,28.4,24.8,86,30.06,3.0,NW,10.4,-,N/A,,Overcast,310,2013-02-03 15:50:00
9:53 AM,30.0,25.0,82,30.08,3.0,NW,16.1,21.9,N/A,,Haze,320,2013-02-03 15:53:00
10:44 AM,30.2,24.8,80,30.08,6.0,WNW,21.9,27.6,N/A,,Haze,300,2013-02-03 16:44:00
10:53 AM,30.9,23.0,72,30.10,7.0,NW,19.6,27.6,N/A,,Overcast,310,2013-02-03 16:53:00
11:19 AM,30.2,21.2,69,30.09,8.0,NW,19.6,27.6,N/A,,Overcast,310,2013-02-03 17:19:00
11:53 AM,30.9,21.0,67,30.12,8.0,WNW,20.7,27.6,N/A,,Overcast,300,2013-02-03 17:53:00
12:26 PM,30.2,21.2,69,30.09,7.0,WNW,11.5,-,N/A,,Overcast,300,2013-02-03 18:26:00
12:50 PM,30.2,21.2,69,30.10,9.0,WNW,20.7,28.8,N/A,,Overcast,300,2013-02-03 18:50:00
12:53 PM,30.9,21.0,67,30.12,9.0,WNW,16.1,28.8,N/A,,Overcast,300,2013-02-03 18:53:00
1:03 PM,30.2,21.2,69,30.11,9.0,WNW,24.2,28.8,N/A,,Overcast,290,2013-02-03 19:03:00
1:10 PM,30.2,19.4,64,30.11,10.0,WNW,21.9,-,N/A,,Overcast,300,2013-02-03 19:10:00
1:53 PM,30.9,19.0,61,30.13,10.0,WNW,19.6,-,N/A,,Overcast,300,2013-02-03 19:53:00
2:53 PM,30.9,19.9,64,30.15,10.0,WNW,17.3,25.3,N/A,,Overcast,290,2013-02-03 20:53:00
3:53 PM,30.9,18.0,59,30.16,10.0,NW,13.8,-,N/A,,Partly Cloudy,310,2013-02-03 21:53:00
4:53 PM,30.9,18.0,59,30.17,10.0,NW,11.5,-,N/A,,Partly Cloudy,310,2013-02-03 22:53:00
5:53 PM,28.0,17.1,63,30.17,10.0,NNW,5.8,-,N/A,,Clear,340,2013-02-03 23:53:00
6:53 PM,26.1,17.1,69,30.17,10.0,Calm,Calm,-,N/A,,Clear,0,2013-02-04 00:53:00
7:53 PM,23.0,17.1,78,30.18,10.0,SSW,4.6,-,N/A,,Clear,210,2013-02-04 01:53:00
8:53 PM,23.0,18.0,81,30.17,10.0,South,5.8,-,N/A,,Scattered Clouds,170,2013-02-04 02:53:00
9:53 PM,21.9,17.1,82,30.16,10.0,SSW,6.9,-,N/A,,Clear,210,2013-02-04 03:53:00
10:53 PM,23.0,18.0,81,30.15,10.0,SSW,4.6,-,N/A,,Clear,210,2013-02-04 04:53:00
11:53 PM,24.1,19.0,81,30.14,9.0,SSW,3.5,-,N/A,,Clear,200,2013-02-04 05:53:00